TimeEDT,TemperatureF,Dew PointF,Humidity,Sea Level PressureIn,VisibilityMPH,Wind Direction,Wind SpeedMPH,Gust SpeedMPH,PrecipitationIn,Events,Conditions,WindDirDegrees,DateUTC
12:51 AM,32.0,32.0,100,29.86,0.8,Calm,Calm,-,0.02,Snow,Light Snow,0,2013-03-16 04:51:00
1:51 AM,32.0,30.9,96,29.84,1.2,East,3.5,-,N/A,Snow,Light Snow,100,2013-03-16 05:51:00
2:51 AM,32.0,30.9,96,29.82,1.5,East,5.8,-,0.01,Snow,Light Snow,100,2013-03-16 06:51:00
3:01 AM,32.0,30.2,93,29.79,2.5,ESE,6.9,-,0.00,Snow,Light Snow,110,2013-03-16 07:01:00
3:51 AM,32.0,30.2,93,29.76,2.0,East,8.1,-,N/A,Snow,Light Snow,80,2013-03-16 07:51:00
4:51 AM,32.0,30.0,92,29.76,2.5,East,6.9,-,0.00,Snow,Light Snow,80,2013-03-16 08:51:00
5:51 AM,32.0,30.9,96,29.76,2.5,East,5.8,-,0.00,Snow,Light Snow,100,2013-03-16 09:51:00
6:43 AM,32.0,30.2,93,29.74,1.5,East,3.5,-,0.01,Snow,Light Snow,80,2013-03-16 10:43:00
6:51 AM,32.0,30.9,96,29.77,1.2,ENE,4.6,-,0.02,Snow,Light Snow,60,2013-03-16 10:51:00
7:08 AM,32.0,30.2,93,29.73,0.8,ENE,6.9,-,0.02,Snow,Light Snow,70,2013-03-16 11:08:00
7:51 AM,32.0,30.0,92,29.76,0.8,East,8.1,-,N/A,Snow,Light Snow,80,2013-03-16 11:51:00
8:17 AM,30.2,30.2,100,29.72,0.2,East,6.9,-,0.04,Snow,Heavy Snow,90,2013-03-16 12:17:00
8:40 AM,30.2,30.2,100,29.72,1.0,East,9.2,-,0.06,Snow,Light Snow,80,2013-03-16 12:40:00
8:51 AM,30.9,30.0,96,29.75,1.5,East,10.4,-,0.06,Snow,Light Snow,80,2013-03-16 12:51:00
9:22 AM,32.0,30.2,93,29.71,3.0,East,11.5,-,0.00,,Light Freezing Drizzle,80,2013-03-16 13:22:00
9:45 AM,32.0,30.2,93,29.70,1.5,East,12.7,-,0.00,Rain-Snow,Light Freezing Rain,80,2013-03-16 13:45:00
9:51 AM,32.0,30.0,92,29.73,1.5,East,9.2,-,0.00,Rain-Snow,Light Freezing Rain,80,2013-03-16 13:51:00
10:25 AM,32.0,30.2,93,29.69,1.5,East,9.2,-,0.00,,Light Freezing Drizzle,80,2013-03-16 14:25:00
10:39 AM,32.0,30.2,93,29.69,1.0,East,9.2,-,0.01,Rain,Light Freezing Rain,80,2013-03-16 14:39:00
10:51 AM,32.0,30.2,93,29.69,1.5,East,8.1,-,N/A,Rain,Light Freezing Rain,100,2013-03-16 14:51:00
11:16 AM,32.0,30.2,93,29.68,1.5,East,8.1,-,0.03,Rain,Light Freezing Rain,90,2013-03-16 15:16:00
11:31 AM,33.8,30.2,87,29.67,1.5,East,6.9,-,0.04,Rain,Light Rain,80,2013-03-16 15:31:00
11:51 AM,33.1,32.0,96,29.70,1.0,East,8.1,-,0.05,Rain,Light Rain,80,2013-03-16 15:51:00
12:51 PM,33.1,32.0,96,29.68,2.0,ENE,6.9,-,0.00,,Light Drizzle,70,2013-03-16 16:51:00
1:17 PM,33.8,32.0,93,29.66,4.0,NNE,8.1,-,0.00,,Light Drizzle,30,2013-03-16 17:17:00
1:25 PM,33.8,32.0,93,29.67,2.5,NNE,5.8,-,0.00,,Light Drizzle,20,2013-03-16 17:25:00
1:51 PM,34.0,32.0,92,29.71,2.5,North,3.5,-,0.00,,Overcast,10,2013-03-16 17:51:00
2:51 PM,34.0,30.9,89,29.74,2.5,North,9.2,-,N/A,,Overcast,10,2013-03-16 18:51:00
3:32 PM,33.8,30.2,87,29.73,2.5,North,11.5,-,N/A,,Overcast,360,2013-03-16 19:32:00
3:39 PM,33.8,30.2,87,29.74,3.0,North,9.2,-,N/A,,Overcast,350,2013-03-16 19:39:00
3:51 PM,32.0,28.9,88,29.78,3.0,NNW,13.8,-,N/A,,Overcast,340,2013-03-16 19:51:00
4:05 PM,30.2,30.2,100,29.75,1.5,NNW,13.8,-,0.00,,Overcast,340,2013-03-16 20:05:00
4:17 PM,30.2,28.4,93,29.76,1.0,NNW,13.8,-,0.00,,Overcast,340,2013-03-16 20:17:00
4:30 PM,30.2,28.4,93,29.77,1.0,North,12.7,-,0.01,Rain,Light Freezing Rain,350,2013-03-16 20:30:00
4:39 PM,30.2,28.4,93,29.78,1.0,North,11.5,-,0.01,,Overcast,350,2013-03-16 20:39:00
4:51 PM,30.0,28.9,96,29.82,1.0,North,9.2,-,0.01,,Overcast,360,2013-03-16 20:51:00
5:06 PM,30.2,28.4,93,29.79,1.0,North,9.2,-,N/A,,Overcast,360,2013-03-16 21:06:00
5:51 PM,30.0,28.0,92,29.86,1.0,NNW,13.8,-,N/A,,Overcast,340,2013-03-16 21:51:00
6:01 PM,30.2,26.6,86,29.82,10.0,NNW,13.8,-,N/A,,Overcast,340,2013-03-16 22:01:00
6:32 PM,30.2,26.6,86,29.84,10.0,North,10.4,-,N/A,,Overcast,350,2013-03-16 22:32:00
6:51 PM,30.0,28.0,92,29.89,10.0,NNW,9.2,-,N/A,,Overcast,330,2013-03-16 22:51:00
7:28 PM,30.2,26.6,86,29.87,10.0,NNW,8.1,-,N/A,,Overcast,330,2013-03-16 23:28:00
7:51 PM,28.9,26.1,89,29.93,10.0,NNW,10.4,-,N/A,,Overcast,330,2013-03-16 23:51:00
8:27 PM,28.4,26.6,93,29.91,10.0,NNW,12.7,-,N/A,,Overcast,330,2013-03-17 00:27:00
8:51 PM,28.9,26.1,89,29.97,10.0,NW,9.2,-,N/A,,Overcast,320,2013-03-17 00:51:00
9:05 PM,28.4,24.8,86,29.93,10.0,NNW,10.4,-,N/A,,Overcast,330,2013-03-17 01:05:00
9:51 PM,28.0,24.1,85,29.99,10.0,NNW,8.1,-,N/A,,Overcast,340,2013-03-17 01:51:00
10:15 PM,28.4,23.0,80,29.96,10.0,NNW,9.2,-,N/A,,Overcast,340,2013-03-17 02:15:00
10:51 PM,28.0,23.0,81,30.01,10.0,North,9.2,-,N/A,,Overcast,360,2013-03-17 02:51:00
11:51 PM,27.0,21.9,81,30.02,10.0,North,4.6,-,N/A,,Overcast,360,2013-03-17 03:51:00